sat.trackr.live / text

‹ back to catalog

STARLINK-37772

NORAD 69330 · 2026-122B

PAYLOAD ACTIVE UNKNOWN

§ Identity

Operator
Country
US
Launch date
2026-06-03
Launch site
AFWTR
Launch vehicle
Mass (kg)
RCS (m²)

Purposes: comms

External: N2YO · Heavens-Above · Gunter

§ Orbital elements

Epoch: 2026-09-19T23:18:59.004864Z

Period
93.91 min
Inclination
97.2790°
Eccentricity
0.0001451
Mean motion
15.33428852 rev/d
Perigee alt
464.6 km
Apogee alt
466.6 km
Semi-major
6,843.7 km
B*
3.6415e-4
RAAN
291.5261°
Arg perigee
100.1659°
Mean anomaly
259.9748°
Rev number
1,671

§ Raw data

STARLINK-377721 69330U 26122B   26262.97151626  .00011693  00000+0  36415-3 0  99902 69330  97.2790 291.5261 0001451 100.1659 259.9748 15.33428852 16716

JSON: /api/v1/satellites/69330 · /tle

For live sub-satellite position, see the globe view (requires WebGL).

§ Visibility from observer

Set your observer location to see the next 7 days of passes ≥ 10°. The values pass through the URL so the page stays shareable.

No JS? Fill the form by hand. The geolocation button needs JavaScript.